[[{"header":{"parameterUnit":"m.s-1","parameterCategory":1,"la1":30.2991,"la2":30.254,"lo1":-89.0895,"lo2":-89.0444,"dy":0.0017,"dx":0.0017,"nx":28,"ny":28,"refTime":"2025-01-18T03:00:00:Z","depth":0,"parameterNumber":2,"parameterNumberName":"U-component_of_WINDS"},"data":[0,0,0,0,0,0,0,0,0,0,0,0,0,0,0,0,0,0,0,0,0,0,0,0,0,0,0,0,0,0,0,0,0,0,0,0,0,0,0,0,0,0,0,0,0,0,0,0,0,0,0,0,0,0,0,0,0,0,2.659,2.659,0,2.6594,2.6594,2.6594,2.6554,2.6553,2.6552,2.6551,2.6554,2.6555,2.6556,0,0,0,0,0,0,0,0,0,0,0,0,0,2.655,2.6551,2.659,2.659,2.659,2.6594,2.6594,2.6594,2.6554,2.6553,2.6551,2.655,2.6554,2.6555,2.6556,0,0,0,0,0,0,0,0,0,0,0,0,0,2.6562,2.6552,2.659,2.6571,2.6569,2.6594,2.6594,2.6594,2.6554,2.6553,2.6551,2.6549,2.6553,2.6555,2.6556,2.6599,0,0,2.6562,2.6562,0,0,0,0,0,0,0,0,2.6562,2.6564,2.6574,2.6572,2.657,2.6572,2.6581,2.6596,2.6555,2.656,2.6551,2.6549,2.6561,2.6562,2.6566,2.66,2.66,2.6562,2.6563,2.6563,2.6564,0,0,0,0,0,0,0,2.6561,2.6563,2.6591,2.6574,2.6572,2.6562,2.6562,2.6583,2.657,2.6559,2.6556,2.6557,2.656,2.6565,2.6566,2.66,2.6562,2.6563,2.6564,2.6565,2.6671,2.6673,0,0,0,0,0,0,2.6562,2.6563,2.6591,2.6592,2.6562,2.6564,2.6564,2.6573,2.6569,2.6567,2.6559,2.6556,2.6563,2.6564,2.6566,2.6618,2.6563,2.6565,2.6566,2.6669,2.6671,2.6673,0,0,0,0,0,0,2.6562,2.6565,2.6591,2.6576,2.6579,2.6567,2.6577,2.6574,2.6578,2.6569,2.6566,2.6566,2.6562,2.6564,2.6592,2.6617,2.6566,2.6567,2.6667,2.667,2.6672,2.672,0,0,0,0,0,0,2.6561,2.6565,2.6581,2.6577,2.658,2.6617,2.6578,2.6575,2.6582,2.6577,2.6575,2.6573,2.656,2.659,2.6594,2.6618,2.6568,2.6665,2.6668,2.6672,2.6716,2.6724,2.6731,0,0,0,0,0,2.656,2.6594,2.6582,2.6586,2.6599,2.6618,2.662,2.6604,2.6584,2.66,2.6594,2.6573,2.6614,2.6593,2.6597,2.6623,2.6663,2.6667,2.6671,2.6713,2.6723,2.6731,0,0,0,0,0,0,2.66,2.6593,2.658,2.6614,2.6617,2.6611,2.6631,2.6615,2.6624,2.6619,2.66,2.66,2.6632,2.663,2.6607,2.6665,2.6635,2.664,2.6665,2.6674,2.6681,2.6681,2.657,0,0,0,0,0,2.6613,2.6629,2.6622,2.6653,2.6655,2.6643,2.6651,2.6639,2.6641,2.6642,2.6638,2.6642,2.6656,2.6665,2.6677,2.6716,2.6716,2.6736,2.6743,2.6749,2.6754,2.6777,2.6786,2.6687,2.6687,2.6687,0,0,2.664,2.6638,2.6649,2.6661,2.6662,2.6679,2.6644,2.6664,2.6677,2.6645,2.6672,2.667,2.6672,2.6707,2.6722,2.6706,2.6782,2.6755,2.676,2.6761,2.6782,2.6791,2.68,2.669,2.6689,2.6689,0,0,2.6698,2.6698,2.6724,2.6727,2.6729,2.6721,2.6728,2.6726,2.6723,2.675,2.6727,2.6743,2.6766,2.6769,2.6774,2.6836,2.6818,2.6841,2.6879,2.6901,2.6909,2.6916,2.6939,2.6948,2.6846,2.6846,2.6846,0,2.6731,2.6756,2.674,2.6761,2.6768,2.6741,2.6769,2.6772,2.6778,2.6783,2.6766,2.6797,2.6796,2.6832,2.6848,2.6852,2.686,2.6841,2.6909,2.6916,2.6922,2.6944,2.6953,2.6848,2.6848,2.6848,2.6848,0,2.6797,2.6815,2.6837,2.6844,2.6853,2.6878,2.6866,2.6877,2.6865,2.6859,2.6888,2.6887,2.6899,2.6907,2.6895,2.6942,2.6932,2.6913,2.6882,2.6935,2.6955,2.6963,2.6852,2.6851,2.6851,2.685,0,0,2.6879,2.688,2.6888,2.6892,2.6894,2.6908,2.6932,2.6944,2.6955,2.6961,2.6981,2.7003,2.6985,2.6991,2.6979,2.6999,2.705,2.6977,2.6976,2.6991,2.7103,2.7119,2.7129,2.7038,2.704,2.7041,2.7103,0,2.6936,2.6977,2.6965,2.7006,2.7023,2.7,2.7021,2.7025,2.7021,2.7036,2.7031,2.7047,2.7022,2.7026,2.7044,2.704,2.7072,2.7035,2.7057,2.7058,2.7058,2.7139,2.7155,2.7214,2.7111,2.7113,2.7114,0,2.7008,2.7018,2.7062,2.7063,2.707,2.7089,2.7101,2.7115,2.712,2.7116,2.7123,2.7108,2.7133,2.7102,2.7137,2.7112,2.712,2.712,2.7122,2.7123,2.7089,2.7143,2.7232,2.7241,2.7126,2.7125,2.7124,0,2.7065,2.7089,2.7119,2.7123,2.7125,2.714,2.7141,2.7144,2.7154,2.7164,2.717,2.7183,2.719,2.7201,2.719,2.7169,2.7227,2.7195,2.7224,2.7225,2.7237,2.7237,2.7329,2.7243,2.7242,2.7242,2.7242,0,2.713,2.7158,2.7145,2.7163,2.7194,2.718,2.7211,2.721,2.7214,2.7232,2.7212,2.723,2.7215,2.7231,2.7223,2.7254,2.7257,2.7255,2.7252,2.7257,2.7257,2.7262,2.7258,2.7245,2.7244,2.7244,2.7243,0,2.7198,2.719,2.7222,2.7222,2.7223,2.7246,2.7246,2.7264,2.7259,2.7283,2.7287,2.728,2.7299,2.729,2.7309,2.7304,2.7343,2.7335,2.7342,2.734,2.7371,2.7368,2.7469,2.7482,2.7387,2.7388,2.7389,0,2.724,2.7261,2.7265,2.7276,2.7279,2.7297,2.7307,2.7294,2.7305,2.7314,2.7331,2.7348,2.7361,2.7393,2.7389,2.7405,2.7397,2.7431,2.7399,2.7403,2.7398,2.7397,2.74,2.7438,2.7439,2.744,2.7441,0,2.7316,2.7312,2.7327,2.7342,2.7354,2.7365,2.7373,2.7384,2.7372,2.7385,2.7405,2.7415,2.7436,2.7454,2.7467,2.7469,2.7454,2.7451,2.7459,2.7464,2.7467,2.7467,2.736,2.7449,2.7448,2.7447,2.7447,2.7446,2.7373,2.7392,2.7398,2.7416,2.7421,2.7431,2.7448,2.7446,2.7462,2.7478,2.747,2.7494,2.75,2.7517,2.7521,2.754,2.7526,2.7537,2.754,2.7543,2.7547,2.7464,2.7542,2.7542,2.7541,2.7541,2.7541,0,2.7449,2.7452,2.7469,2.7483,2.7498,2.7482,2.7492,2.7505,2.7526,2.7533,2.7547,2.7571,2.7589,2.7588,2.7604,2.7619,2.7613,2.7624,2.7623,2.7624,2.7558,2.755,2.763,2.763,2.7629,2.7629,2.7629,2.7629,2.749,2.7521,2.7518,2.7553,2.7555,2.7578,2.7586,2.7595,2.7601,2.7628,2.7643,2.7643,2.7647,2.7665,2.7681,2.768,2.7687,2.7702,2.7699,2.7637,2.7628,2.762,2.7612,2.7704,2.7704,2.7763,2.7764,2.7764]},{"header":{"parameterUnit":"m.s-1","parameterCategory":1,"la1":30.2991,"la2":30.254,"lo1":-89.0895,"lo2":-89.0444,"dy":0.0017,"dx":0.0017,"nx":28,"ny":28,"refTime":"2025-01-18T03:00:00:Z","depth":0,"parameterNumber":3,"parameterNumberName":"V-component_of_WINDS"},"data":[0,0,0,0,0,0,0,0,0,0,0,0,0,0,0,0,0,0,0,0,0,0,0,0,0,0,0,0,0,0,0,0,0,0,0,0,0,0,0,0,0,0,0,0,0,0,0,0,0,0,0,0,0,0,0,0,0,0,3.6757,3.6757,0,3.679,3.6791,3.6791,3.6805,3.6805,3.6805,3.6805,3.6835,3.6836,3.6837,0,0,0,0,0,0,0,0,0,0,0,0,0,3.6704,3.6704,3.6757,3.6757,3.6758,3.679,3.6791,3.6791,3.6805,3.6805,3.6805,3.6805,3.6835,3.6836,3.6837,0,0,0,0,0,0,0,0,0,0,0,0,0,3.6731,3.6705,3.6757,3.6769,3.677,3.679,3.6791,3.6791,3.6805,3.6805,3.6805,3.6805,3.6834,3.6836,3.6837,3.6847,0,0,3.6841,3.6842,0,0,0,0,0,0,0,0,3.6729,3.6733,3.6766,3.6768,3.6769,3.6793,3.6783,3.681,3.6805,3.6791,3.6805,3.6805,3.6821,3.6823,3.683,3.6848,3.6849,3.6841,3.6842,3.6842,3.6843,0,0,0,0,0,0,0,3.6727,3.6731,3.677,3.6767,3.6769,3.6772,3.6775,3.6788,3.6806,3.6793,3.6794,3.6798,3.6822,3.6828,3.6831,3.685,3.6841,3.6842,3.6843,3.6844,3.6881,3.6881,0,0,0,0,0,0,3.6724,3.673,3.6769,3.6771,3.6749,3.6773,3.6777,3.6786,3.6806,3.6809,3.6798,3.6798,3.6826,3.6829,3.6832,3.6847,3.6842,3.6844,3.6844,3.6881,3.6881,3.6882,0,0,0,0,0,0,3.6723,3.6727,3.6767,3.6751,3.6756,3.6774,3.6783,3.6786,3.6793,3.681,3.6813,3.6801,3.6826,3.683,3.6844,3.6848,3.6844,3.6845,3.6881,3.6881,3.6881,3.6875,0,0,0,0,0,0,3.6721,3.6727,3.6731,3.6751,3.6757,3.6779,3.6784,3.6787,3.6796,3.6797,3.6814,3.6817,3.6827,3.6842,3.6845,3.685,3.6846,3.688,3.6881,3.6881,3.6875,3.6876,3.6876,0,0,0,0,0,3.6719,3.6726,3.6731,3.6735,3.6762,3.678,3.6783,3.6795,3.6796,3.68,3.6812,3.6816,3.6847,3.6843,3.6847,3.6852,3.688,3.6881,3.6881,3.6875,3.6875,3.6876,0,0,0,0,0,0,3.6704,3.6729,3.6734,3.6748,3.6762,3.6782,3.6788,3.6794,3.6807,3.6807,3.682,3.6824,3.6838,3.6846,3.6841,3.6864,3.6864,3.6865,3.6858,3.6859,3.6859,3.6857,3.6847,0,0,0,0,0,3.6702,3.6715,3.6736,3.6746,3.6753,3.6769,3.6777,3.6786,3.68,3.6805,3.6817,3.683,3.6843,3.6851,3.6863,3.6877,3.6882,3.6882,3.6882,3.6882,3.6883,3.6893,3.6894,3.6883,3.6883,3.6883,0,0,3.6699,3.6714,3.6721,3.6744,3.6755,3.6768,3.6774,3.6786,3.6796,3.6807,3.6822,3.6831,3.6847,3.6861,3.6868,3.6868,3.6888,3.6883,3.6883,3.6884,3.6894,3.6895,3.6896,3.6884,3.6883,3.6883,0,0,3.67,3.6712,3.6723,3.6736,3.6755,3.6766,3.6769,3.6788,3.6796,3.6812,3.6821,3.6832,3.6853,3.6865,3.6873,3.6882,3.6887,3.6885,3.6886,3.6896,3.6897,3.6898,3.6903,3.6904,3.6886,3.6886,3.6886,0,3.6693,3.6714,3.6728,3.6741,3.6752,3.6764,3.6776,3.6787,3.6808,3.6815,3.6815,3.6844,3.6855,3.6874,3.6877,3.6882,3.6887,3.6883,3.6896,3.6897,3.6898,3.6903,3.6904,3.6886,3.6886,3.6886,3.6886,0,3.6705,3.672,3.6726,3.6749,3.676,3.6773,3.6789,3.6798,3.6807,3.6818,3.6835,3.6849,3.6866,3.687,3.6877,3.6891,3.6891,3.6893,3.6894,3.6898,3.6903,3.6905,3.6886,3.6886,3.6886,3.6886,0,0,3.6696,3.6729,3.6731,3.6743,3.6766,3.6777,3.6791,3.6809,3.6818,3.6832,3.6845,3.6864,3.6868,3.6878,3.6886,3.6894,3.6903,3.6896,3.6897,3.6898,3.6921,3.692,3.6922,3.6907,3.6907,3.6908,3.6921,0,3.6701,3.6728,3.6742,3.6763,3.6777,3.679,3.6803,3.6818,3.6829,3.6843,3.6855,3.687,3.6872,3.6879,3.6887,3.69,3.6908,3.6899,3.6919,3.692,3.6916,3.6924,3.6923,3.6934,3.6922,3.6923,3.6923,0,3.671,3.6727,3.675,3.6774,3.6781,3.6792,3.6811,3.6824,3.6842,3.685,3.6863,3.6872,3.6887,3.6887,3.6909,3.6903,3.6912,3.6919,3.692,3.6923,3.6922,3.6929,3.6938,3.694,3.6926,3.6925,3.6925,0,3.6703,3.6732,3.675,3.676,3.6788,3.6795,3.6807,3.6826,3.6837,3.6853,3.6861,3.6879,3.6888,3.6902,3.6916,3.6914,3.6937,3.6937,3.6945,3.6944,3.6949,3.6949,3.6961,3.6953,3.6953,3.6953,3.6953,0,3.6708,3.6722,3.6748,3.6759,3.6776,3.6793,3.6808,3.6821,3.6838,3.6852,3.6863,3.6876,3.6893,3.6908,3.6918,3.6936,3.694,3.6947,3.695,3.6947,3.6946,3.6953,3.6953,3.6953,3.6953,3.6953,3.6953,0,3.6703,3.6721,3.6742,3.6769,3.6776,3.6787,3.6809,3.682,3.6833,3.6851,3.6856,3.6876,3.6895,3.691,3.6933,3.6941,3.696,3.6962,3.6954,3.6956,3.6964,3.6963,3.6982,3.6986,3.6974,3.6974,3.6974,0,3.6706,3.6717,3.6746,3.6757,3.6769,3.6787,3.6799,3.6817,3.6829,3.6853,3.6862,3.6881,3.6898,3.6927,3.6944,3.6962,3.6966,3.6971,3.6969,3.6966,3.6968,3.6968,3.697,3.6972,3.6972,3.6972,3.6972,0,3.6709,3.6718,3.6736,3.6759,3.6774,3.6791,3.6809,3.6817,3.6838,3.6852,3.6872,3.6886,3.6911,3.6931,3.6952,3.6964,3.6972,3.6973,3.6976,3.6973,3.6969,3.6973,3.6957,3.6972,3.6972,3.6972,3.6972,3.6972,3.6709,3.6721,3.6744,3.6764,3.678,3.6798,3.6811,3.6827,3.6845,3.6869,3.6877,3.6899,3.6919,3.6948,3.696,3.6977,3.6978,3.6982,3.6983,3.6984,3.6985,3.6966,3.6981,3.6981,3.6981,3.6981,3.6981,0,3.6714,3.673,3.6749,3.6776,3.6792,3.68,3.6821,3.6834,3.6854,3.6872,3.689,3.6914,3.6935,3.6954,3.6975,3.6985,3.6989,3.699,3.699,3.6993,3.6982,3.6978,3.6986,3.6986,3.6986,3.6986,3.6986,3.6986,3.6719,3.674,3.6753,3.6783,3.6799,3.6821,3.6833,3.6849,3.6865,3.6893,3.691,3.6923,3.6943,3.6966,3.6985,3.699,3.6998,3.6998,3.7004,3.6994,3.6993,3.6992,3.6989,3.6999,3.6999,3.7014,3.7014,3.7014]}]]